星链-1304 (STARLINK-1304 )

导读 | 豆包AI

STARLINK-1304是美国SpaceX公司星链(Starlink)星座的成员卫星,于2020年3月18日发射入轨。作为全球低轨卫星互联网项目的组成部分,它采用平板设计与霍尔推进技术,具备自主避撞能力,旨在为全球偏远地区提供低延迟高速宽带服务,是星链构建万星互联网星座的重要一环,服役寿命约5至7年,退役后会主动离轨在大气层焚毁。

基本信息
目录编号:
45376
目录名称:
STARLINK-1304
国际标识:
2020-019S
轨道中心:
EARTH
卫星名称:
星链-1304
卫星全名:
星链-1304 (STARLINK-1304 )
卫星状态:
在轨 (已飞行2208 天)
发射日期:
2020-03-18 UTC
国别 :
美国 (US)
星等 :
--
轨道信息
数据来源 国际轨道数据
星历时间: 2026-04-03T12:58:23+0800
22小时前
查看轨道信息
半长轴: 6787.437km
偏心率: 0.0003808
轨道倾角: 53.049°
近地点辐角 108.710°
升交点赤经 31.792°
平近点角 251.432°
近地点: 406.715km
远地点: 411.885km
周期: 92.751分钟
每日圈数: 15.525446
详细信息
固有亮度:
5
最大亮度:
2.5
卫星平台:
Starlink V1.0
覆盖范围:
全球
运营商:
太空探索技术公司
运营商所在国:
美国
制造商(研发单位):
太空探索技术公司
制造商所在国:
美国
使用方式:
暂无
卫星简介
星链(Starlink)计划是由太空探索技术公司(SpaceX)提出的一个巨型低轨卫星互联网星座项目,计划在2019年至2024年间在太空搭建由约1.2万颗卫星组成的“星链”网络,其中1584颗将部署在地球上空550千米处的近地轨道,并从2020年开始工作。该卫星仍在工作。
2D轨道图
3D轨道图
轨道高度分析图
轨道倾角分析图
轨道综合分析图
查看轨道综合分析图